CW5212 Weather Reports


Display with metric or nautical units.
time (UTC)temp
F
wind
direction
speed
MPH
gust
MPH
rain 1hr
in
rain 24hr
in
rain mn
in
humidity
%
barometer
mb
20260903114551 53 272 8.0 16.0 0.00 0.00 0.00 39 941.9
20260903113028 53 271 9.0 14.0 0.00 0.00 0.00 38 942.0
20260903111514 53 248 8.0 13.0 0.00 0.00 0.00 37 941.9
20260903110051 53 252 6.0 11.0 0.00 0.00 0.00 36 941.9
20260903104552 54 252 7.0 14.0 0.00 0.00 0.00 34 941.8
20260903103026 54 237 6.0 13.0 0.00 0.00 0.00 34 941.7
20260903101507 53 246 6.0 9.0 0.00 0.00 0.00 35 941.5
20260903100053 53 254 2.0 5.0 0.00 0.00 0.00 35 941.5
20260903094534 54 202 3.0 6.0 0.00 0.00 0.00 33 941.4
20260903093030 55 198 3.0 5.0 0.00 0.00 0.00 32 941.4
20260903091506 55 196 2.0 4.0 0.00 0.00 0.00 31 941.3
20260903090053 54 114 0.0 3.0 0.00 0.00 0.00 31 941.2
20260903084538 54 114 0.0 4.0 0.00 0.00 0.00 31 941.3
20260903083025 53 114 0.0 2.0 0.00 0.00 0.00 33 941.4
20260903081519 54 114 1.0 4.0 0.00 0.00 0.00 32 941.4
20260903080054 54 111 1.0 6.0 0.00 0.00 0.00 33 941.5
20260903074542 54 223 0.0 3.0 0.00 0.00 0.00 32 941.3
20260903073024 53 101 2.0 6.0 0.00 0.00 0.00 34 941.0
20260903071506 52 67 3.0 4.0 0.00 0.00 0.00 37 940.7
20260903070046 53 51 1.0 5.0 0.00 0.00 0.00 34 940.8
20260903064528 54 59 3.0 4.0 0.00 0.00 0.00 34 941.1
20260903063017 54 45 3.0 5.0 0.00 0.00 0.00 35 941.0
20260903061555 55 218 0.0 1.0 0.00 0.00 0.00 30 941.0
20260903060032 56 287 4.0 8.0 0.00 0.00 0.00 28 940.9
20260903054507 55 298 3.0 10.0 0.00 0.00 0.00 28 941.0
20260903053058 55 268 3.0 8.0 0.00 0.00 0.00 31 941.7
20260903051533 55 258 3.0 7.0 0.00 0.00 0.00 29 941.3
20260903050019 56 257 4.0 10.0 0.00 0.00 0.00 27 941.4
20260903044559 56 297 3.0 8.0 0.00 0.00 0.00 29 941.2
20260903044502 56 293 4.0 8.0 0.00 0.00 0.00 29 941.3
20260903043044 56 270 5.0 11.0 0.00 0.00 0.00 28 941.5
20260903041524 56 280 1.0 8.0 0.00 0.00 0.00 29 941.3
20260903040014 57 300 9.0 13.0 0.00 0.00 0.00 28 941.5
20260903034557 56 277 6.0 10.0 0.00 0.00 0.00 29 941.3
20260903034502 56 277 5.0 10.0 0.00 0.00 0.00 29 941.3
20260903033044 56 272 6.0 9.0 0.00 0.00 0.00 28 941.4
20260903031533 57 282 5.0 8.0 0.00 0.00 0.00 29 941.4
20260903030009 57 261 4.0 11.0 0.00 0.00 0.00 29 941.0
20260903024547 57 283 6.0 11.0 0.00 0.00 0.00 29 940.9
20260903023033 58 278 12.0 18.0 0.00 0.00 0.00 27 940.7
20260903021513 58 289 12.0 17.0 0.00 0.00 0.00 27 940.2
20260903020058 59 271 12.0 20.0 0.00 0.00 0.00 26 940.1
20260903020003 59 268 13.0 20.0 0.00 0.00 0.00 26 940.1
20260903014608 60 256 14.0 20.0 0.00 0.00 0.00 27 940.3
20260903013028 60 275 9.0 16.0 0.00 0.00 0.00 25 940.3
20260903011515 61 286 13.0 17.0 0.00 0.00 0.00 25 940.5
20260903010051 61 261 9.0 12.0 0.00 0.00 0.00 25 940.5
20260903004538 62 254 9.0 16.0 0.00 0.00 0.00 25 940.6
20260903003016 62 248 12.0 18.0 0.00 0.00 0.00 23 940.4
20260903001601 62 225 12.0 19.0 0.00 0.00 0.00 23 940.5
20260903001505 62 254 11.0 19.0 0.00 0.00 0.00 23 940.5
20260903000055 62 271 11.0 23.0 0.00 0.00 0.00 23 940.4
20260902234530 64 274 14.0 21.0 0.00 0.00 0.00 22 940.5
20260902233015 66 252 12.0 18.0 0.00 0.00 0.00 21 940.5
20260902231555 65 234 11.0 20.0 0.00 0.00 0.00 22 940.5
20260902230058 64 275 12.0 17.0 0.00 0.00 0.00 23 940.3
20260902224527 63 273 11.0 16.0 0.00 0.00 0.00 23 940.2
20260902223020 64 231 9.0 18.0 0.00 0.00 0.00 22 940.2
20260902221555 64 252 14.0 19.0 0.00 0.00 0.00 21 940.2
20260902220044 64 244 11.0 19.0 0.00 0.00 0.00 21 940.0
20260902214545 65 296 10.0 18.0 0.00 0.00 0.00 23 939.9
20260902213009 65 288 11.0 17.0 0.00 0.00 0.00 22 939.8
20260902211548 66 251 11.0 19.0 0.00 0.00 0.00 21 939.8
20260902210035 67 277 12.0 20.0 0.00 0.00 0.00 21 939.8
20260902204517 65 223 11.0 18.0 0.00 0.00 0.00 22 939.7
20260902203006 65 265 11.0 18.0 0.00 0.00 0.00 22 939.9
20260902201549 65 261 10.0 18.0 0.00 0.00 0.00 22 939.8
20260902200027 66 261 11.0 18.0 0.00 0.00 0.00 23 940.1
20260902194503 64 286 11.0 18.0 0.00 0.00 0.00 24 940.3
20260902193046 64 242 11.0 16.0 0.00 0.00 0.00 22 940.3
20260902191522 64 298 11.0 17.0 0.00 0.00 0.00 22 940.4
20260902190055 64 250 11.0 19.0 0.00 0.00 0.00 22 940.5
20260902184542 65 252 10.0 18.0 0.00 0.00 0.00 21 940.6
20260902183015 64 276 12.0 21.0 0.00 0.00 0.00 23 940.8
20260902181549 65 281 11.0 17.0 0.00 0.00 0.00 23 940.8
20260902180031 64 254 10.0 17.0 0.00 0.00 0.00 24 940.9
20260902174506 63 259 11.0 19.0 0.00 0.00 0.00 23 940.9
20260902173105 62 246 9.0 19.0 0.00 0.00 0.00 26 940.9
20260902171533 61 254 14.0 22.0 0.00 0.00 0.00 26 940.7
20260902170007 62 237 13.0 21.0 0.00 0.00 0.00 25 940.6
20260902164540 62 250 13.0 19.0 0.00 0.00 0.00 24 940.5
20260902163027 61 279 14.0 20.0 0.00 0.00 0.00 26 940.2
20260902161510 60 280 15.0 27.0 0.00 0.00 0.00 27 940.2
20260902154542 60 243 16.0 25.0 0.00 0.00 0.00 27 939.7
20260902153030 65 220 8.0 17.0 0.00 0.00 0.00 35 939.2
20260902151555 64 135 8.0 19.0 0.00 0.00 0.00 41 939.3
20260902151501 64 161 8.0 19.0 0.00 0.00 0.00 41 939.4
20260902150039 63 184 7.0 18.0 0.00 0.00 0.00 40 939.1
20260902144518 62 147 6.0 12.0 0.00 0.00 0.00 46 939.0
20260902143058 61 152 6.0 12.0 0.00 0.00 0.00 52 939.0
20260902143002 61 114 5.0 12.0 0.00 0.00 0.00 52 938.9
20260902141556 61 196 6.0 12.0 0.00 0.00 0.00 56 938.8
20260902140022 60 142 9.0 16.0 0.00 0.00 0.00 57 938.7
20260902134508 59 139 7.0 14.0 0.00 0.00 0.00 59 938.7
20260902133057 58 127 9.0 17.0 0.00 0.00 0.00 60 938.7
20260902131549 58 132 10.0 15.0 0.00 0.00 0.00 62 938.8
20260902130029 58 119 9.0 17.0 0.00 0.00 0.00 62 938.8
20260902124509 59 109 10.0 15.0 0.00 0.00 0.00 61 938.8
20260902123137 59 149 8.0 14.0 0.00 0.00 0.00 61 938.7
20260902121534 59 117 6.0 12.0 0.00 0.00 0.00 61 938.7
20260902120028 59 132 7.0 13.0 0.00 0.00 0.00 60 938.9